Find Zi Yuan 1-02C

NORAD ID: 38038 Int'l Des: 2011-079 Owner: ZZWYZ Country: CN operational
LEOCIRCULARRETROGRADESSO

实时位置

正在加载3D地球...

关于 Zi Yuan 1-02C

正在加载描述...

即将过境

Passes for default location (London). Set your location on the main map for personalized predictions.

高度历史

Loading altitude history...

两行轨道根数

1 38038U 11079A 26105.61440220 .00000470 00000-0 16897-3 0 9998
2 38038 98.4114 174.2215 0007417 128.3530 9.2109 14.38162884750215
Epoch: Apr 15, 2026 • Age: 8 hours

当前状态

高度 768.7 km
速度 7.47 km/s
星下点 22.95°N, 11.59°W
发射日期 Dec 22, 2011
运行时间 14.3 years
类型 other

技术详情

分类 Payload
质量 2100.00 kg
干质量 2000.00 kg
总质量 2100.00 kg
长度 1.80 m
直径 2.00 m
跨度 9.00 m
形状 Box + Pan
制造商 CAST
平台类型 ZY
阶段状态 In Orbit
所有者/国家 ZZWYZ/CN

Most Searched